Location: Cartignies
(50.0929°N, 3.8447°E)
Time: 15:14:36
(UTC+00:00)

Nadezhda 3 Rocket - Pass Details

Date: 12 January 2026
Orbit: 956 x 997 km, 82.9° (Epoch: 16 February)

Event Time Altitude Azimuth Distance (km) Brightness Sun altitude
Rises 18:14:01 0° 169° (S) 3,626 7.0 -19.7°
Reaches altitude 10° 18:16:34 10° 164° (SSE) 2,682 6.2 -20.1°
Maximum altitude 18:22:26 50° 91° (E) 1,203 4.0 -21.0°
Enters shadow 18:27:27 15° 21° (NNE) 2,385 5.8 -21.8°
